Location: ??
(35.5052°N, 139.7262°E)
Time: 18:10:54
(UTC+00:00)

SeaSat 1 - Pass Details

Date: 20 June 2021
Orbit: 745 x 746 km, 108.0° (Epoch: 29 July)

Event Time Altitude Azimuth Distance (km) Brightness Sun altitude
Rises 17:29:38 0° 25° (NNE) 3,193 7.1 -19.1°
Reaches altitude 10° 17:31:54 10° 26° (NNE) 2,266 6.1 -18.8°
Maximum altitude 17:36:51 84° 115° (ESE) 754 2.4 -18.1°
Enters shadow 17:39:20 30° 201° (SSW) 1,313 3.2 -17.8°
